Regional Weather Roundup
Issued by NWS Jackson, KY

Home | Current Version | Previous Version | Graphics & Text | Print | Product List | Glossary On
Versions: 1 2 3 4 5 6 7 8 9 10 11 12 13 14 15 16 17 18 19 20 21 22 23 24 25 26 27 28 29 30 31 32 33 34 35 36 37 38 39 40 41 42 43 44 45 46 47 48 49 50
000
ASUS43 KJKL 260710
RWRJKL

EAST KENTUCKY HOURLY WEATHER ROUNDUP
NATIONAL WEATHER SERVICE JACKSON KY
200 AM EST WED NOV 26 2014

NOTE: "FAIR" INDICATES FEW OR NO CLOUDS BELOW 12,000 FEET WITH
NO SIGNIFICANT WEATHER AND/OR OBSTRUCTIONS TO VISIBILITY.

* THESE REPORTS ARE NOT UNDER NWS QUALITY CONTROL AND MAY NOT
  REPORT WEATHER SUCH AS PRECIPITATION AND FOG.

KYZ079-080-083-085-087-088-110-112-115-119-120-260800
...EASTERN KENTUCKY...

CITY           SKY/WX    TMP DP  RH WIND       PRES   REMARKS
JACKSON        CLOUDY    38  28  67 VRB5      30.06F WCI  34
LONDON         CLOUDY    40  27  59 N7        30.06F
SOMERSET*      CLOUDY    36  28  75 N5        30.09F WCI  32
MONTICELLO*    CLOUDY    39  29  68 CALM      30.12F
HARLAN APT*    CLOUDY    41  28  60 CALM      30.03F
BLACK MTN*       N/A     34  27  75 E3          N/A
PIKEVILLE APT* PTCLDY    39  28  65 N7        30.04S WCI  34
$$

KYZ035-036-041-042-044-050-067-078-099-260800
...CENTRAL KENTUCKY...

CITY           SKY/WX    TMP DP  RH WIND       PRES   REMARKS
MT STERLING*   CLOUDY    34  32  93 NE5       30.13F WCI  30
FLEMING/MASON* PTCLDY    32  28  86 NE6       30.14F WCI  26
DANVILLE*      CLOUDY    34  30  86 N6        30.11F WCI  29
RICHMOND*      CLOUDY    36  28  75 N3        30.10F
LEXINGTON      CLOUDY    33  29  85 N8        30.12F WCI  26
FRANKFORT      PTCLDY    31  27  85 N5        30.13F WCI  26
$$

KYZ091>093-OHZ055-061-077-WVZ005-015-034-035-042-260800
...SOUTHERN OHIO/WEST VIRGINIA...

CITY           SKY/WX    TMP DP  RH WIND       PRES   REMARKS
COVINGTON      PTCLDY    29  23  78 N5        30.15S WCI  24
COLUMBUS       CLOUDY    28  23  81 CALM      30.17S
DAYTON         CLOUDY    29  25  85 N6        30.17R WCI  23
WILMINGTON     CLOUDY    28  24  85 E5        30.16R WCI  23
HUNTINGTON     CLOUDY    37  28  70 N6        30.12S WCI  32
CHARLESTON     CLOUDY    39  29  67 N5        30.09F
PINEVILLE*     CLOUDY    39  35  88 MISG      30.10S
BECKLEY        CLOUDY    39  26  59 CALM      30.04S
BLUEFIELD      CLOUDY    42  24  49 E5        30.03F
$$

VAZ002-007-008-TNZ017-027-036-066-071-260800
...SOUTHWEST VIRGINIA/EAST TENNESSEE...

CITY           SKY/WX    TMP DP  RH WIND       PRES   REMARKS
WISE*          CLOUDY    37  28  70 N5        30.02F WCI  34
JONESVILLE*    CLOUDY    37  36  93 CALM      30.02F
ABINGDON*      CLOUDY    45  30  55 NE5       30.00F
BRISTOL        CLOUDY    43  32  65 CALM      30.01F
KNOXVILLE      CLOUDY    45  29  53 N6        30.02F
OAK RIDGE      CLOUDY    46  30  53 CALM      30.03F
CROSSVILLE     CLOUDY    39  27  62 NW5       30.07S
NASHVILLE      PTCLDY    35  27  72 N3        30.13F
$$

...KEY TO REMARKS...
VSB - VISIBILITY IN MILES
WCI - WIND CHILL INDEX
HX  - HEAT INDEX

$$


USA.gov is the U.S. government's official web portal to all federal, state and local government web resources and services.